1515805201.0,23317,8.63,73554.3,-10.81,-48.83,-48.63,0,*62
1515805202.24,23318,8.63,73554.0,-10.81,-48.97,-48.77,0,*6D
1515805203.48,23319,8.63,73556.5,-10.81,-48.77,-48.63,0,*67
1515805204.7,23320,8.63,73558.0,-10.81,-48.63,-48.41,0,*68
1515805205.92,23321,8.63,73556.8,-10.81,-48.83,-48.63,0,*67
1515805207.16,23322,8.63,73556.0,-10.81,-48.83,-48.77,0,*61
1515805208.37,23323,8.63,73552.5,-10.81,-48.83,-48.63,0,*65
1515805209.59,23324,8.63,73552.3,-10.81,-48.83,-48.63,0,*62
1515805210.86,23325,8.63,73554.3,-10.79,-48.91,-48.55,0,*62
1515805212.13,23326,8.63,73556.0,-10.79,-48.77,-48.55,0,*69
1515805213.43,23327,8.63,73556.8,-10.79,-48.69,-48.35,0,*61
1515805214.7,23328,8.63,73552.3,-10.81,-48.91,-48.77,0,*68
1515805215.94,23329,8.63,73554.3,-10.81,-49.19,-48.97,0,*66
1515805217.23,23330,8.63,73554.8,-10.79,-48.77,-48.69,0,*61
1515805218.44,23331,8.63,73554.0,-10.81,-49.25,-48.97,0,*60
1515805219.71,23332,8.63,73556.5,-10.81,-49.19,-48.77,0,*62
1515805220.95,23333,8.63,73554.0,-10.81,-48.55,-48.35,0,*6C
1515805222.19,23334,8.63,73552.0,-10.81,-48.35,-48.21,0,*68
1515805223.45,23335,8.63,73554.5,-10.81,-48.35,-48.13,0,*68
1515805224.7,23336,8.63,73556.5,-10.81,-48.55,-48.27,0,*6A
1515805225.94,23337,8.63,73552.0,-10.81,-48.55,-48.35,0,*68
1515805227.16,23338,8.63,73554.0,-10.81,-48.55,-48.55,0,*61
1515805228.43,23339,8.63,73550.3,-10.79,-48.49,-48.27,0,*6F
1515805229.71,23340,8.63,73552.5,-10.79,-48.35,-48.27,0,*6A
1515805230.93,23341,8.63,73554.0,-10.81,-48.83,-48.63,0,*61
1515805232.22,23342,8.63,73550.5,-10.79,-48.35,-48.13,0,*6F
1515805233.47,23343,8.63,73554.5,-10.77,-48.35,-48.13,0,*60
1515805234.76,23344,8.63,73554.0,-10.79,-48.35,-48.27,0,*6E
1515805236.05,23345,8.63,73554.0,-10.79,-48.35,-48.13,0,*68
1515805237.26,23346,8.63,73554.3,-10.81,-48.63,-48.41,0,*68
1515805238.49,23347,8.63,73552.5,-10.81,-48.63,-48.55,0,*6C
1515805239.76,23348,8.63,73558.0,-10.79,-48.69,-48.55,0,*6E
1515805241.04,23349,8.63,73552.8,-10.79,-48.69,-48.55,0,*6F
1515805242.32,23350,8.63,73552.5,-10.79,-48.69,-48.55,0,*67
1515805243.56,23351,8.63,73558.5,-10.79,-48.97,-48.55,0,*67
1515805244.85,23352,8.63,73552.3,-10.79,-48.91,-48.77,0,*62
1515805246.12,23353,8.63,73556.3,-10.79,-48.77,-48.55,0,*6B
1515805247.34,23354,8.63,73552.8,-10.81,-49.05,-48.83,0,*64
1515805248.61,23355,8.69,73558.5,-10.79,-48.97,-48.77,0,*63
1515805249.87,23356,8.63,73552.5,-10.79,-48.55,-48.35,0,*68
1515805251.09,23357,8.63,73552.3,-10.81,-48.97,-48.63,0,*63
1515805252.39,23358,8.63,73556.3,-10.79,-48.69,-48.35,0,*69
1515805253.61,23359,8.63,73556.0,-10.81,-49.05,-48.63,0,*67
1515805254.83,23360,8.63,73554.5,-10.81,-49.05,-48.83,0,*63
1515805256.05,23361,8.63,73554.5,-10.81,-48.83,-48.63,0,*63
1515805257.29,23362,8.63,73556.3,-10.79,-48.55,-48.55,0,*69
1515805258.53,23363,8.63,73558.0,-10.81,-48.83,-48.69,0,*6B
1515805259.75,23364,8.63,73556.8,-10.81,-48.83,-48.63,0,*66
1515805260.99,23365,8.63,73554.8,-10.79,-48.49,-48.49,0,*6E
1515805262.25,23366,8.63,73554.0,-10.79,-48.69,-48.49,0,*6F
1515805263.49,23367,8.63,73554.8,-10.81,-48.97,-48.77,0,*65
1515805264.73,23368,8.63,73558.8,-10.79,-48.49,-48.49,0,*63
1515805265.97,23369,8.63,73558.0,-10.81,-48.77,-48.63,0,*60
1515805267.22,23370,8.63,73558.5,-10.81,-48.97,-48.77,0,*63
1515805268.43,23371,8.63,73556.5,-10.81,-49.25,-49.05,0,*6E
1515805269.67,23372,8.63,73556.0,-10.81,-48.83,-48.77,0,*64
1515805270.92,23373,8.63,73556.8,-10.81,-49.05,-48.77,0,*6A
1515805272.13,23374,8.63,73558.3,-10.81,-49.05,-48.97,0,*63
1515805273.37,23375,8.63,73556.0,-10.81,-49.19,-48.97,0,*6F
1515805274.64,23376,8.63,73558.3,-10.79,-49.33,-49.11,0,*6C
1515805275.91,23377,8.63,73556.3,-10.83,-48.97,-48.77,0,*66
1515805277.18,23378,8.63,73556.8,-10.83,-48.77,-48.63,0,*62
1515805278.44,23379,8.63,73554.5,-10.83,-48.97,-48.77,0,*68
1515805279.68,23380,8.63,73558.0,-10.83,-48.83,-48.63,0,*6E
1515805280.95,23381,8.63,73554.3,-10.83,-48.77,-48.63,0,*64
1515805282.19,23382,8.63,73556.8,-10.83,-48.97,-48.63,0,*69
1515805283.44,23383,8.63,73554.5,-10.83,-49.05,-48.83,0,*6C
1515805284.7,23384,8.63,73552.5,-10.83,-49.19,-48.97,0,*63
1515805285.97,23385,8.63,73558.3,-10.83,-48.97,-48.77,0,*6B
1515805287.23,23386,8.63,73558.3,-10.83,-48.97,-48.77,0,*68
1515805288.5,23387,8.63,73558.0,-10.83,-49.19,-48.97,0,*60
1515805289.74,23388,8.63,73562.0,-10.87,-49.25,-49.05,0,*6E
1515805291.03,23389,8.63,73556.0,-10.87,-49.47,-49.11,0,*6E
1515805292.27,23390,8.63,73556.5,-10.83,-49.25,-49.05,0,*63
1515805293.54,23391,8.63,73558.5,-10.87,-49.53,-49.33,0,*62
1515805294.81,23392,8.63,73556.3,-10.83,-49.05,-48.77,0,*67
1515805296.08,23393,8.63,73560.0,-10.83,-48.97,-48.77,0,*6C
1515805297.34,23394,8.63,73558.5,-10.87,-49.25,-49.11,0,*66
1515805298.6,23395,8.63,73562.0,-10.83,-49.25,-49.19,0,*6B
1515805299.87,23396,8.63,73556.3,-10.87,-49.47,-49.25,0,*67
1515805301.11,23397,8.63,73558.8,-10.87,-49.25,-49.05,0,*60
1515805302.35,23398,8.63,73560.3,-10.89,-49.25,-49.11,0,*64
1515805303.59,23399,8.63,73556.8,-10.89,-49.25,-49.11,0,*65
1515805304.83,23400,8.63,73556.0,-10.89,-49.33,-49.11,0,*65
1515805306.12,23401,8.63,73556.0,-10.91,-49.61,-49.39,0,*60
1515805307.39,23402,8.63,73558.5,-10.89,-49.11,-48.91,0,*6E
1515805308.65,23403,8.63,73552.3,-10.91,-49.19,-48.97,0,*68
1515805309.94,23404,8.63,73552.8,-10.91,-49.11,-48.91,0,*61
1515805311.18,23405,8.63,73556.3,-10.89,-48.69,-48.49,0,*62
1515805312.45,23406,8.63,73552.5,-10.87,-49.05,-48.69,0,*66
1515805313.72,23407,8.63,73554.3,-10.89,-48.91,-48.69,0,*65
1515805314.98,23408,8.63,73554.5,-10.89,-48.91,-48.69,0,*6A
1515805316.28,23409,8.63,73554.0,-10.91,-49.11,-48.91,0,*6C
1515805317.55,23410,8.63,73558.5,-10.91,-49.19,-49.05,0,*60
1515805318.79,23411,8.63,73558.0,-10.91,-49.33,-49.33,0,*6C
1515805320.05,23412,8.63,73554.8,-10.91,-48.97,-48.91,0,*69
1515805321.32,23413,8.63,73558.0,-10.89,-49.11,-48.91,0,*6E
1515805322.58,23414,8.63,73556.5,-10.91,-49.33,-49.19,0,*61
1515805323.88,23415,8.63,73558.5,-10.91,-49.19,-49.11,0,*60
1515805325.18,23416,8.63,73556.3,-10.91,-49.19,-49.11,0,*63
1515805326.47,23417,8.63,73556.5,-10.91,-49.19,-49.11,0,*62
1515805327.71,23418,8.63,73556.5,-10.93,-49.33,-48.91,0,*6E
1515805329.0,23419,8.63,73554.8,-10.95,-49.39,-49.19,0,*62
1515805330.27,23420,8.63,73558.3,-10.93,-49.39,-49.39,0,*6C
1515805331.5,23421,8.63,73560.5,-10.93,-49.33,-49.19,0,*65
1515805332.74,23422,8.63,73556.5,-10.95,-49.25,-49.05,0,*6A
1515805334.03,23423,8.63,73558.5,-10.95,-49.61,-49.39,0,*64
1515805335.32,23424,8.63,73556.8,-10.95,-49.61,-49.47,0,*6A
1515805336.56,23425,8.63,73558.3,-10.93,-49.33,-49.11,0,*69
1515805337.82,23426,8.63,73560.5,-10.93,-49.53,-49.39,0,*66
1515805339.03,23427,8.63,73558.5,-10.93,-49.33,-48.97,0,*64
1515805340.27,23428,8.63,73556.5,-10.95,-49.25,-49.05,0,*60
1515805341.56,23429,8.63,73556.5,-10.95,-49.19,-49.19,0,*63
1515805342.8,23430,8.63,73558.8,-10.95,-49.25,-49.05,0,*69
1515805344.07,23431,8.63,73556.8,-10.95,-49.39,-49.05,0,*65
1515805345.36,23432,8.63,73556.3,-10.95,-49.47,-49.39,0,*60
1515805346.63,23433,8.63,73558.3,-10.95,-49.39,-49.05,0,*67
1515805347.87,23434,8.63,73558.3,-10.95,-49.25,-48.97,0,*67
1515805349.08,23435,8.63,73556.3,-10.97,-49.33,-49.05,0,*69
1515805350.35,23436,8.63,73558.0,-10.97,-49.11,-48.91,0,*66
1515805351.59,23437,8.63,73556.0,-10.97,-49.11,-49.05,0,*6B
1515805352.83,23438,8.63,73552.0,-10.97,-48.91,-48.83,0,*62
1515805354.09,23439,8.63,73556.8,-10.97,-49.11,-48.91,0,*69
1515805355.36,23440,8.63,73552.8,-10.97,-49.11,-48.91,0,*67
1515805356.57,23441,8.63,73556.8,-10.97,-49.05,-48.83,0,*60
1515805357.81,23442,8.63,73556.5,-10.97,-48.91,-48.83,0,*6F
1515805359.02,23443,8.63,73556.8,-10.97,-49.33,-49.25,0,*6A
1515805360.27,23444,8.63,73556.5,-10.97,-49.11,-49.05,0,*6F
1515805361.53,23445,8.63,73556.8,-10.97,-49.11,-48.91,0,*62
1515805362.78,23446,8.63,73558.0,-10.97,-49.33,-49.11,0,*68
1515805364.04,23447,8.63,73556.5,-10.99,-49.05,-48.91,0,*6B
1515805365.26,23448,8.63,73556.8,-10.97,-49.33,-49.33,0,*66
1515805366.47,23449,8.63,73556.5,-10.97,-49.25,-49.05,0,*65
1515805367.74,23450,8.63,73556.8,-10.95,-49.19,-48.83,0,*6F
1515805368.98,23451,8.63,73556.8,-10.97,-49.11,-48.83,0,*64
1515805370.25,23452,8.63,73556.8,-10.97,-49.11,-48.91,0,*64
1515805371.51,23453,8.63,73556.8,-10.97,-49.11,-48.91,0,*65
1515805372.77,23454,8.63,73558.0,-10.97,-49.11,-48.91,0,*62
1515805374.01,23455,8.63,73556.0,-10.99,-49.25,-49.05,0,*66
1515805375.28,23456,8.63,73556.0,-10.99,-49.33,-49.11,0,*67
1515805376.55,23457,8.63,73558.3,-10.99,-49.25,-49.11,0,*61
1515805377.76,23458,8.63,73558.3,-10.97,-49.05,-48.83,0,*68
1515805378.98,23459,8.63,73556.5,-10.97,-49.33,-49.05,0,*63
1515805380.24,23460,8.63,73558.5,-10.99,-48.83,-48.69,0,*66
1515805381.48,23461,8.63,73558.5,-10.99,-48.63,-48.63,0,*63
1515805382.72,23462,8.63,73558.5,-10.97,-48.91,-48.63,0,*63
1515805383.99,23463,8.63,73562.3,-10.97,-49.11,-48.91,0,*66
1515805385.25,23464,8.63,73556.5,-10.99,-49.25,-48.91,0,*68
1515805386.51,23465,8.63,73558.8,-10.99,-49.05,-48.91,0,*6B
1515805387.75,23466,8.63,73556.3,-10.99,-49.33,-49.25,0,*63
1515805388.96,23467,8.63,73554.5,-10.97,-49.25,-49.05,0,*69
1515805390.23,23468,8.63,73558.3,-10.99,-49.11,-49.05,0,*6F
1515805391.47,23469,8.63,73556.3,-10.99,-49.05,-49.05,0,*6B
1515805392.7,23470,8.63,73556.5,-10.99,-48.83,-48.83,0,*63
1515805393.94,23471,8.63,73556.3,-10.97,-48.69,-48.49,0,*6E
1515805395.18,23472,8.63,73556.0,-10.99,-48.83,-48.63,0,*6F
1515805396.47,23473,8.63,73558.8,-10.99,-48.91,-48.69,0,*67
1515805397.72,23474,8.63,73556.0,-10.97,-48.69,-48.63,0,*63
1515805398.96,23475,8.63,73554.8,-10.99,-49.05,-48.83,0,*69
1515805400.2,23476,8.63,73558.0,-10.99,-48.63,-48.49,0,*6D
1515805401.46,23477,8.63,73552.8,-10.99,-48.49,-48.35,0,*6F
1515805402.69,23478,8.63,73558.8,-10.99,-48.63,-48.49,0,*63
1515805403.93,23479,8.63,73558.3,-10.97,-48.49,-48.35,0,*6F
1515805405.2,23480,8.63,73556.8,-10.99,-48.69,-48.49,0,*6E
1515805406.41,23481,8.63,73558.8,-10.97,-48.83,-48.63,0,*6D
1515805407.65,23482,8.63,73552.0,-10.97,-48.69,-48.49,0,*62
1515805408.87,23483,8.63,73556.5,-10.97,-49.05,-48.83,0,*6E
1515805410.13,23484,8.63,73556.3,-10.97,-48.91,-48.69,0,*61
1515805411.4,23485,8.63,73552.0,-10.99,-48.91,-48.83,0,*6A
1515805412.66,23486,8.63,73558.5,-10.99,-48.91,-48.83,0,*69
1515805413.9,23487,8.63,73560.8,-10.97,-48.83,-48.69,0,*61
1515805415.16,23488,8.63,73556.5,-10.99,-49.25,-48.91,0,*6A
1515805416.4,23489,8.63,73556.0,-10.97,-49.25,-49.11,0,*6C
1515805417.66,23490,8.63,73558.5,-10.99,-49.11,-49.05,0,*68
1515805418.87,23491,8.63,73556.8,-10.97,-48.83,-48.49,0,*64
1515805420.16,23492,8.63,73562.3,-10.99,-48.91,-48.69,0,*68
1515805421.42,23493,8.63,73558.5,-10.99,-49.25,-48.91,0,*60
1515805422.71,23494,8.63,73558.5,-10.99,-49.11,-48.91,0,*60
1515805423.98,23495,8.63,73556.8,-10.99,-49.33,-49.11,0,*68
1515805425.21,23496,8.63,73556.8,-10.99,-49.25,-49.05,0,*69
1515805426.48,23497,8.63,73556.8,-10.99,-49.33,-49.11,0,*6A
1515805427.74,23498,8.63,73558.5,-10.99,-49.05,-48.91,0,*69
1515805428.98,23499,8.63,73558.8,-10.99,-49.25,-49.05,0,*66
1515805430.24,23500,8.63,73558.5,-10.99,-49.47,-49.25,0,*61
1515805431.5,23501,8.63,73556.0,-10.99,-49.53,-49.25,0,*65
1515805432.77,23502,8.63,73558.8,-11.01,-49.47,-49.11,0,*64
1515805434.01,23503,8.63,73558.3,-11.01,-48.69,-48.49,0,*64
1515805435.25,23504,8.63,73556.5,-10.99,-49.05,-48.83,0,*6E
1515805436.54,23505,8.63,73560.0,-10.99,-49.11,-48.91,0,*69
1515805437.8,23506,8.63,73558.5,-10.99,-49.25,-48.91,0,*6D
1515805439.09,23507,8.63,73556.5,-10.99,-49.11,-48.91,0,*6B
1515805440.33,23508,8.63,73558.3,-10.99,-49.05,-48.83,0,*62
1515805441.59,23509,8.63,73554.8,-11.01,-49.11,-48.91,0,*65
1515805442.81,23510,8.63,73558.5,-11.01,-49.25,-49.05,0,*66
1515805444.02,23511,8.63,73556.8,-11.01,-49.33,-49.05,0,*60
1515805445.24,23512,8.63,73556.8,-11.01,-49.05,-48.83,0,*69
1515805446.5,23513,8.63,73556.5,-11.01,-49.11,-48.91,0,*6E
1515805447.77,23514,8.63,73556.3,-11.01,-49.11,-48.91,0,*69
1515805449.03,23515,8.63,73560.0,-11.03,-49.39,-48.97,0,*66
1515805450.32,23516,8.63,73556.3,-11.03,-49.39,-49.19,0,*62
1515805451.57,23517,8.63,73558.5,-11.01,-49.33,-49.11,0,*63
1515805452.83,23518,8.63,73558.0,-11.03,-49.33,-49.19,0,*66
1515805454.13,23519,8.63,73558.0,-11.03,-49.53,-49.39,0,*63
1515805455.4,23520,8.63,73558.0,-11.03,-49.33,-49.11,0,*65
1515805456.69,23521,8.63,73556.3,-11.03,-49.11,-48.91,0,*6D
1515805457.92,23522,8.63,73558.8,-11.01,-49.25,-48.91,0,*6B
1515805459.22,23523,8.63,73556.0,-11.03,-49.39,-49.11,0,*6C
1515805460.52,23524,8.63,73556.0,-11.03,-49.39,-49.11,0,*6B
1515805461.79,23525,8.63,73556.8,-11.03,-49.33,-49.11,0,*60
1515805463.04,23526,8.63,73554.3,-11.05,-49.33,-49.11,0,*65
1515805464.31,23527,8.63,73556.3,-11.05,-49.11,-49.11,0,*64
1515805465.56,23528,8.63,73562.3,-11.05,-49.33,-49.11,0,*6B
1515805466.82,23529,8.63,73554.5,-11.09,-49.19,-48.97,0,*61
1515805468.08,23530,8.63,73558.8,-11.09,-49.39,-49.05,0,*61
1515805469.29,23531,8.63,73560.8,-11.05,-49.33,-48.97,0,*6C
1515805470.57,23532,8.63,73558.0,-11.05,-49.39,-49.39,0,*60
1515805471.82,23533,8.63,73558.0,-11.05,-49.53,-49.33,0,*67
1515805473.08,23534,8.63,73556.8,-11.09,-49.19,-49.05,0,*67
1515805474.35,23535,8.63,73558.8,-11.05,-49.39,-49.19,0,*65
1515805475.63,23536,8.63,73560.5,-11.09,-49.47,-49.19,0,*63
1515805476.9,23537,8.63,73556.8,-11.09,-49.61,-49.47,0,*6D
1515805478.16,23538,8.63,73558.3,-11.09,-49.39,-49.25,0,*6B
1515805479.44,23539,8.63,73556.3,-11.09,-49.47,-49.19,0,*6C
1515805480.68,23540,8.63,73554.5,-11.05,-49.19,-48.97,0,*62
1515805481.94,23541,8.63,73558.0,-11.09,-49.39,-49.05,0,*67
1515805483.18,23542,8.63,73556.0,-11.09,-49.25,-49.05,0,*69
1515805484.46,23543,8.63,73558.0,-11.09,-49.47,-49.39,0,*63
1515805485.74,23544,8.63,73556.3,-11.09,-49.47,-49.47,0,*6D
1515805487.02,23545,8.63,73556.5,-11.09,-49.61,-49.39,0,*61
1515805488.29,23546,8.63,73552.5,-11.13,-49.67,-49.47,0,*66
1515805489.52,23547,8.63,73554.5,-11.11,-49.75,-49.53,0,*63
1515805490.79,23548,8.63,73558.5,-11.13,-49.11,-49.05,0,*6F
1515805492.03,23549,8.63,73554.8,-11.13,-49.25,-49.05,0,*69
1515805493.29,23550,8.63,73558.8,-11.11,-49.39,-49.19,0,*63
1515805494.53,23551,8.63,73552.3,-11.13,-49.25,-49.05,0,*60
1515805495.77,23552,8.63,73554.0,-11.13,-49.33,-49.05,0,*64
1515805497.03,23553,8.63,73554.8,-11.13,-49.05,-48.91,0,*6C
1515805498.3,23554,8.63,73556.8,-11.13,-49.33,-49.11,0,*67
1515805499.57,23555,8.63,73556.8,-11.13,-49.05,-48.91,0,*6A
1515805500.83,23556,8.63,73558.0,-11.13,-49.11,-49.05,0,*60
1515805502.1,23557,8.63,73558.3,-11.13,-49.25,-49.11,0,*63
1515805503.37,23558,8.63,73554.8,-11.13,-49.53,-49.33,0,*6D
1515805504.63,23559,8.63,73558.3,-11.13,-49.47,-49.25,0,*6E
1515805505.87,23560,8.63,73558.0,-11.15,-49.53,-49.33,0,*60
1515805507.14,23561,8.63,73556.0,-11.15,-49.11,-48.91,0,*6E
1515805508.38,23562,8.63,73556.0,-11.15,-49.11,-49.05,0,*61
1515805509.59,23563,8.63,73556.3,-11.15,-49.05,-48.83,0,*6A
1515805510.89,23564,8.63,73556.5,-11.17,-49.19,-49.11,0,*68
1515805512.13,23565,8.63,73558.5,-11.15,-49.33,-49.11,0,*63
1515805513.37,23566,8.63,73552.3,-11.15,-49.11,-49.05,0,*65
1515805514.67,23567,8.63,73558.0,-11.17,-49.19,-49.11,0,*6B
1515805515.91,23568,8.63,73556.5,-11.15,-49.11,-49.05,0,*6B
1515805517.17,23569,8.63,73558.0,-11.15,-48.91,-48.91,0,*6F
1515805518.44,23570,8.63,73558.5,-11.15,-49.47,-49.11,0,*64
1515805519.7,23571,8.63,73556.5,-11.15,-49.11,-48.91,0,*6F
1515805520.91,23572,8.63,73556.8,-11.15,-49.05,-48.83,0,*6A
1515805522.18,23573,8.63,73554.5,-11.13,-48.83,-48.69,0,*66
1515805523.44,23574,8.63,73554.8,-11.15,-49.11,-48.91,0,*6A
1515805524.73,23575,8.63,73552.0,-11.17,-49.19,-49.19,0,*60
1515805525.97,23576,8.63,73554.3,-11.15,-49.19,-49.05,0,*6C
1515805527.19,23577,8.63,73552.5,-11.15,-49.33,-49.05,0,*65
1515805528.45,23578,8.63,73558.3,-11.15,-49.11,-48.91,0,*66
1515805529.71,23579,8.63,73556.3,-11.17,-48.97,-48.91,0,*6A
1515805530.93,23580,8.63,73554.3,-11.15,-49.05,-48.83,0,*67
1515805532.19,23581,8.63,73554.0,-11.17,-49.53,-49.33,0,*6D
1515805533.49,23582,8.63,73556.8,-11.17,-48.91,-48.69,0,*6F
1515805534.75,23583,8.63,73558.0,-11.17,-49.19,-48.97,0,*6E
1515805536.02,23584,8.63,73556.3,-11.17,-49.33,-49.11,0,*6E
1515805537.29,23585,8.63,73556.3,-11.17,-49.33,-49.11,0,*6F
1515805538.56,23586,8.63,73556.5,-11.17,-49.33,-49.11,0,*6C
1515805539.82,23587,8.63,73558.3,-11.17,-49.19,-48.97,0,*6A
1515805541.09,23588,8.63,73554.0,-11.17,-49.39,-49.33,0,*68
1515805542.38,23589,8.63,73552.5,-11.17,-49.53,-49.39,0,*6F
1515805543.66,23590,8.63,73558.0,-11.17,-49.39,-49.33,0,*61
1515805544.93,23591,8.63,73556.5,-11.17,-49.39,-49.33,0,*60
1515805546.19,23592,8.63,73556.3,-11.19,-49.61,-49.47,0,*63
1515805547.45,23593,8.63,73556.3,-11.19,-49.61,-49.39,0,*6B
1515805548.72,23594,8.63,73556.3,-11.19,-49.61,-49.39,0,*6C
1515805549.99,23595,8.63,73552.3,-11.19,-49.47,-49.39,0,*69
1515805551.26,23596,8.63,73556.5,-11.21,-49.67,-49.39,0,*63
1515805552.49,23597,8.63,73558.0,-11.19,-49.25,-49.19,0,*6D
1515805553.73,23598,8.63,73558.5,-11.19,-49.39,-49.25,0,*60
1515805555.0,23599,8.63,73558.8,-11.21,-49.67,-49.47,0,*65
1515805556.24,23600,8.63,73558.8,-11.19,-49.67,-49.61,0,*69
1515805557.48,23601,8.63,73558.8,-11.21,-49.89,-49.89,0,*65
1515805558.72,23602,8.63,73558.8,-11.23,-49.67,-49.47,0,*66
1515805559.98,23603,8.63,73554.8,-11.21,-49.19,-48.97,0,*60
1515805561.27,23604,8.63,73558.3,-11.21,-49.19,-49.19,0,*60
1515805562.54,23605,8.63,73562.0,-11.21,-49.47,-49.25,0,*65
1515805563.78,23606,8.63,73554.8,-11.25,-49.33,-49.25,0,*61
1515805565.02,23607,8.63,73558.8,-11.23,-49.67,-49.47,0,*63
1515805566.25,23608,8.63,73558.5,-11.25,-49.75,-49.75,0,*68
1515805567.5,23609,8.63,73560.5,-11.23,-49.81,-49.47,0,*65
1515805568.76,23610,8.63,73556.8,-11.25,-49.75,-49.53,0,*65
1515805570.0,23611,8.63,73558.3,-11.25,-49.89,-49.67,0,*60
1515805571.26,23612,8.63,73558.5,-11.25,-49.75,-49.47,0,*62
1515805572.52,23613,8.63,73556.0,-11.25,-49.75,-49.53,0,*66
1515805573.79,23614,8.63,73558.8,-11.25,-49.75,-49.53,0,*61
1515805575.03,23615,8.63,73556.0,-11.27,-49.67,-49.53,0,*61
1515805576.29,23616,8.63,73556.5,-11.27,-49.53,-49.47,0,*60
1515805577.53,23617,8.63,73556.0,-11.31,-49.75,-49.53,0,*67
1515805578.77,23618,8.63,73554.5,-11.31,-49.81,-49.61,0,*62
1515805580.0,23619,8.63,73556.8,-11.31,-49.81,-49.81,0,*6D
1515805581.25,23620,8.63,73554.8,-11.31,-50.03,-49.97,0,*62
1515805582.48,23621,8.63,73556.0,-11.31,-49.97,-49.75,0,*6A
1515805583.7,23622,8.63,73556.0,-11.31,-49.97,-49.81,0,*62
1515805584.93,23623,8.63,73558.0,-11.31,-49.97,-49.81,0,*63
1515805586.15,23624,8.63,73556.5,-11.31,-49.97,-49.75,0,*6F
1515805587.37,23625,8.63,73558.5,-11.35,-49.89,-49.67,0,*66
1515805588.58,23626,8.63,73556.3,-11.35,-49.81,-49.67,0,*6D
1515805589.8,23627,8.63,73558.0,-11.35,-49.89,-49.67,0,*64
1515805591.01,23628,8.63,73554.8,-11.35,-49.89,-49.67,0,*6B
1515805592.23,23629,8.63,73556.8,-11.35,-49.89,-49.67,0,*6A
1515805593.45,23630,8.63,73558.8,-11.35,-49.89,-49.89,0,*62
1515805594.68,23631,8.63,73556.3,-11.35,-49.89,-49.81,0,*6B
1515805595.91,23632,8.63,73560.5,-11.39,-49.97,-49.89,0,*63
1515805597.15,23633,8.63,73562.3,-11.37,-49.81,-49.67,0,*6B
1515805598.39,23634,8.63,73558.5,-11.39,-49.67,-49.61,0,*6C
1515805599.62,23635,8.63,73556.8,-11.39,-49.97,-49.97,0,*6B
1515805600.83,23636,8.63,73558.5,-11.41,-49.97,-49.67,0,*68
1515805602.07,23637,8.63,73560.5,-11.41,-49.67,-49.53,0,*61
1515805603.27,23638,8.63,73556.0,-11.41,-49.75,-49.67,0,*6A
1515805604.5,23639,8.63,73560.0,-11.41,-49.89,-49.53,0,*6F
1515805605.71,23640,8.63,73556.5,-11.41,-49.97,-49.67,0,*69
1515805606.95,23641,8.63,73552.8,-11.41,-49.75,-49.47,0,*66
1515805608.21,23642,8.63,73558.0,-11.39,-49.53,-49.47,0,*6E
1515805609.45,23643,8.63,73556.3,-11.41,-49.53,-49.33,0,*63
1515805610.69,23644,8.63,73556.0,-11.41,-49.81,-49.61,0,*6C
1515805611.89,23645,8.63,73558.8,-11.41,-49.75,-49.67,0,*60
1515805613.11,23646,8.63,73558.0,-11.41,-49.97,-49.75,0,*6C
1515805614.36,23647,8.63,73558.3,-11.43,-49.75,-49.53,0,*67
1515805615.63,23648,8.63,73558.3,-11.43,-49.53,-49.33,0,*6A
1515805616.92,23649,8.63,73556.0,-11.43,-49.39,-49.19,0,*6F
1515805618.2,23650,8.63,73558.3,-11.43,-49.39,-49.53,0,*69
1515805619.48,23651,8.63,73558.5,-11.43,-49.61,-49.61,0,*64
1515805620.71,23652,8.63,73558.5,-11.45,-49.81,-49.61,0,*6F
1515805621.93,23653,8.63,73558.3,-11.45,-49.81,-49.75,0,*6B
1515805623.18,23654,8.63,73560.3,-11.45,-50.03,-49.81,0,*65
1515805624.45,23655,8.63,73554.5,-11.47,-50.03,-49.89,0,*6E
1515805625.73,23656,8.63,73554.0,-11.47,-50.03,-49.81,0,*65
1515805626.97,23657,8.63,73556.8,-11.47,-49.89,-49.67,0,*66
1515805628.21,23658,8.63,73558.8,-11.47,-49.89,-49.67,0,*69
1515805629.48,23659,8.63,73558.8,-11.47,-50.11,-49.89,0,*61
1515805630.75,23660,8.63,73558.0,-11.47,-50.03,-49.81,0,*60
1515805631.97,23661,8.63,73558.3,-11.49,-49.89,-49.81,0,*65
1515805633.21,23662,8.63,73556.8,-11.51,-49.89,-49.75,0,*64
1515805634.45,23663,8.63,73556.0,-11.47,-49.89,-49.67,0,*61
1515805635.7,23664,8.63,73556.8,-11.49,-50.11,-49.89,0,*61
1515805636.92,23665,8.63,73556.5,-11.49,-49.89,-49.81,0,*61
1515805638.14,23666,8.63,73556.8,-11.49,-49.89,-49.81,0,*62
1515805639.38,23667,8.63,73558.0,-11.51,-49.89,-49.75,0,*61
1515805640.61,23668,8.63,73554.5,-11.51,-49.89,-49.67,0,*6D
1515805641.85,23669,8.63,73556.5,-11.51,-49.75,-49.67,0,*6F
1515805643.09,23670,8.63,73558.3,-11.51,-49.89,-49.75,0,*67
1515805644.32,23671,8.63,73556.3,-11.51,-49.75,-49.67,0,*66
1515805645.56,23672,8.63,73554.8,-11.55,-49.89,-49.75,0,*61
1515805646.82,23673,8.63,73556.5,-11.55,-49.67,-49.53,0,*64
1515805648.03,23674,8.63,73554.0,-11.57,-49.75,-49.67,0,*65
1515805649.25,23675,8.63,73554.8,-11.57,-49.81,-49.81,0,*67
1515805650.52,23676,8.63,73556.3,-11.57,-49.53,-49.39,0,*68
1515805651.77,23677,8.63,73554.5,-11.57,-49.61,-49.61,0,*65
1515805653.01,23678,8.63,73556.0,-11.55,-49.75,-49.75,0,*68
1515805654.24,23679,8.63,73558.0,-11.57,-49.75,-49.53,0,*6F
1515805655.48,23680,8.63,73558.5,-11.57,-49.75,-49.61,0,*68
1515805656.7,23681,8.63,73558.8,-11.57,-49.97,-49.81,0,*6B
1515805657.96,23682,8.63,73554.5,-11.59,-49.75,-49.53,0,*65
1515805659.22,23683,8.63,73554.8,-11.59,-49.75,-49.61,0,*65
1515805660.49,23684,8.63,73554.8,-11.59,-49.81,-49.61,0,*69
1515805661.73,23685,8.63,73558.3,-11.59,-49.75,-49.75,0,*66
1515805662.98,23686,8.63,73554.0,-11.59,-49.81,-49.81,0,*65
1515805664.22,23687,8.63,73556.5,-11.61,-50.03,-49.89,0,*65
1515805665.47,23688,8.63,73552.8,-11.59,-49.97,-49.81,0,*6C
1515805666.74,23689,8.63,73558.3,-11.59,-50.03,-49.75,0,*63
1515805667.99,23690,8.63,73554.5,-11.61,-50.03,-49.81,0,*6B
1515805669.24,23691,8.63,73558.3,-11.61,-50.11,-49.89,0,*61
1515805670.45,23692,8.63,73554.3,-11.61,-49.81,-49.67,0,*63
1515805671.66,23693,8.63,73556.5,-11.65,-49.75,-49.75,0,*6E
1515805672.89,23694,8.63,73554.0,-11.61,-49.81,-49.81,0,*6D
1515805674.13,23695,8.63,73556.5,-11.67,-49.97,-49.75,0,*66
1515805675.36,23696,8.63,73552.5,-11.65,-49.97,-49.97,0,*6B
1515805676.6,23697,8.63,73552.8,-11.65,-50.11,-49.89,0,*63
1515805677.82,23698,8.63,73558.5,-11.65,-49.75,-49.67,0,*66
1515805679.04,23699,8.63,73554.3,-11.65,-49.97,-49.75,0,*68
1515805680.25,23700,8.63,73560.3,-11.65,-49.75,-49.67,0,*66
1515805681.52,23701,8.63,73556.5,-11.67,-50.11,-49.97,0,*60
1515805682.77,23702,8.63,73558.5,-11.67,-49.97,-49.97,0,*65
1515805684.04,23703,8.63,73554.3,-11.69,-50.17,-50.03,0,*6F
1515805685.29,23704,8.63,73554.0,-11.67,-49.89,-49.97,0,*6C
1515805686.6,23705,8.63,73556.8,-11.71,-50.03,-50.03,0,*65
1515805687.83,23706,8.63,73554.8,-11.69,-49.97,-49.97,0,*6F
1515805689.08,23707,8.63,73556.0,-11.71,-49.97,-49.97,0,*67
1515805690.34,23708,8.63,73556.0,-11.71,-49.97,-49.81,0,*6F
1515805691.62,23709,8.63,73558.5,-11.71,-50.17,-49.97,0,*69
1515805692.91,23710,8.63,73554.3,-11.71,-50.25,-50.03,0,*65
1515805694.22,23711,8.63,73556.5,-11.71,-50.03,-50.03,0,*60
1515805695.47,23712,8.63,73554.8,-11.71,-49.97,-49.97,0,*63
1515805696.75,23713,8.63,73552.8,-11.73,-50.03,-49.89,0,*6A
1515805698.0,23714,8.63,73558.3,-11.71,-49.81,-49.75,0,*6E
1515805699.26,23715,8.63,73556.0,-11.75,-50.03,-50.11,0,*63
1515805700.52,23716,8.63,73558.0,-11.75,-50.25,-50.11,0,*64